This demonstration page uses our WeatherBlox Daily Observations layout. Learn more.

Left ArrowRight Arrow

Hourly Observations for September 29, 2018

Temp ( °F °C ) Dew Point ( °F °C ) Humidity (%) Winds ( mph kmh ) Pressure ( in mb ) Visibility ( mi km ) Precip ( " mm )
12:53 am 00:53 Cloudy 47 8.3 39 3.9 74 74 SSE 6 9 30.32 1027 10 16 0.00 0.00
1:53 am 01:53 Cloudy 47 8.3 39 3.9 74 74 SSE 6 9 30.29 1026 10 16 0.00 0.00
2:46 am 02:46 Cloudy 46 8 39 4 76 76 SSE 6 9 30.30 1026 10 16 0.00 0.00
2:53 am 02:53 Cloudy 47 8.3 38 3.3 71 71 SSE 9 15 30.28 1025 10 16 0.00 0.00
3:11 am 03:11 Cloudy 47 8.3 39 3.9 74 74 SSE 8 13 30.30 1026 10 16 0.00 0.00
3:53 am 03:53 Cloudy 46 7.8 37 2.8 71 71 SE 8 13 30.25 1024 10 16 0.00 0.00
4:53 am 04:53 Cloudy 46 7.8 36 2.2 68 68 SE 8 13 30.23 1024 10 16 0.00 0.00
5:53 am 05:53 Cloudy 46 7.8 35 1.7 66 66 SSE 10 17 30.22 1023 10 16 0.00 0.00
6:13 am 06:13 Cloudy 46 7.8 35 1.7 66 66 SSE 9 15 30.24 1024 10 16 0.00 0.00
6:53 am 06:53 Cloudy 46 7.8 36 2.2 68 68 SE 12 19 30.20 1023 10 16 0.00 0.00
7:53 am 07:53 Cloudy 44 6.7 39 3.9 83 83 SSE 9 15 30.20 1023 9 14 0.00 0.00
8:19 am 08:19 Cloudy with Mist and Fog 43 6 41 5 93 93 SE 8 13 30.21 1023 3 4 0.00 0.00
8:34 am 08:34 Cloudy with Light Rain 43 6 41 5 93 93 SSE 7 11 30.21 1023 2 2 0.00 0.00
8:47 am 08:47 Cloudy with Light Rain 43 6 43 6 100 100 SSE 7 11 30.21 1023 2 3 0.00 0.03
8:53 am 08:53 Cloudy with Light Rain 43 6.1 42 5.6 97 97 SSE 8 13 30.19 1022 2 2 0.00 0.03
9:08 am 09:08 Cloudy with Light Rain 43 6 43 6 100 100 SE 8 13 30.21 1023 2 2 0.00 0.00
9:41 am 09:41 Cloudy with Mist and Fog 44 6.7 43 6.1 96 96 SE 10 17 30.21 1023 1 2 0.01 0.25
9:53 am 09:53 Cloudy with Mist and Fog 44 6.7 43 6.1 96 96 SSE 9 15 30.19 1022 1 2 0.01 0.25
10:15 am 10:15 Cloudy with Mist and Fog 45 7.2 44 6.7 97 97 SSE 7 11 30.18 1022 1 2 0.00 0.00
10:29 am 10:29 Cloudy with Mist and Fog 44 6.7 43 6.1 96 96 SSE 9 15 30.18 1022 2 3 0.00 0.00
10:53 am 10:53 Cloudy with Mist and Fog 45 7.2 44 6.7 97 97 SE 10 17 30.16 1021 2 3 0.00 0.00
11:20 am 11:20 Cloudy with Mist and Fog 45 7.2 44 6.7 97 97 SSE 12 19 30.12 1020 2 3 0.00 0.00
11:53 am 11:53 Cloudy with Mist and Fog 46 7.8 45 7.2 96 96 SSE 14 22 30.12 1020 3 5 0.00 0.00
12:53 pm 12:53 Cloudy 49 9.4 46 7.8 90 90 S 13 20 30.09 1019 10 16 0.00 0.00
1:53 pm 13:53 Cloudy 51 10.6 47 8.3 86 86 S 7 11 30.07 1018 10 16 0.00 0.00
2:24 pm 14:24 Cloudy 51 10.6 47 8.3 86 86 S 6 9 30.09 1019 10 16 0.00 0.00
2:36 pm 14:36 Cloudy 51 10.6 47 8.3 86 86 S 6 9 30.09 1019 10 16 0.00 0.00
2:53 pm 14:53 Cloudy 51 10.6 47 8.3 86 86 S 7 11 30.06 1018 10 16 0.00 0.00
3:06 pm 15:06 Cloudy 51 10.6 47 8.3 86 86 SSW 9 15 30.09 1019 10 16 0.00 0.00
3:34 pm 15:34 Cloudy 52 11 48 9 88 88 S 7 11 30.03 1017 10 16 0.00 0.00
3:53 pm 15:53 Cloudy 51 10.6 48 8.9 89 89 SSE 6 9 30.04 1017 10 16 0.00 0.00
4:53 pm 16:53 Cloudy 52 11.1 48 8.9 86 86 SSE 7 11 30.04 1017 10 16 0.00 0.00
5:16 pm 17:16 Cloudy with Mist and Fog 52 11 48 9 88 88 SSE 6 9 30.03 1017 2 3 0.00 0.00
5:53 pm 17:53 Cloudy with Mist and Fog 51 10.6 50 10 96 96 SSE 5 7 30.05 1018 3 4 0.00 0.00
6:03 pm 18:03 Cloudy with Mist and Fog 51 10.6 50 10 96 96 S 5 7 30.03 1017 4 6 0.00 0.00
6:23 pm 18:23 Cloudy with Mist and Fog 51 10.6 50 10 96 96 S 6 9 30.03 1017 3 5 0.00 0.00
6:48 pm 18:48 Cloudy with Mist and Fog 52 11 50 10 94 94 SE 3 6 30.06 1018 2 3 0.00 0.00
6:53 pm 18:53 Cloudy with Mist and Fog 51 10.6 50 10 96 96 SE 3 6 30.06 1018 3 4 0.00 0.00
6:56 pm 18:56 Cloudy with Mist and Fog 52 11 50 10 94 94 SSE 5 7 30.06 1018 3 5 0.00 0.00
7:17 pm 19:17 Cloudy with Mist and Fog 51 10.6 50 10 96 96 SSE 3 6 30.09 1019 3 5 0.00 0.00
7:53 pm 19:53 Cloudy with Mist and Fog 51 10.6 50 10 96 96 SE 6 9 30.08 1019 5 8 0.00 0.00
8:37 pm 20:37 Cloudy with Mist and Fog 51 10.6 50 10 96 96 SE 5 7 30.12 1020 3 5 0.00 0.00
8:53 pm 20:53 Cloudy with Mist and Fog 50 10 50 10 100 100 SE 6 9 30.10 1019 3 5 0.00 0.00
9:53 pm 21:53 Cloudy 51 10.6 50 10 96 96 Calm 30.12 1020 8 13 0.00 0.00
10:53 pm 22:53 Cloudy 51 10.6 50 10 96 96 NNE 5 7 30.10 1019 7 11 0.00 0.00
11:16 pm 23:16 Cloudy 50 10 50 10 100 100 E 5 7 30.12 1020 7 11 0.00 0.00
11:24 pm 23:24 Cloudy 51 10.6 50 10 96 96 ESE 5 7 30.12 1020 7 11 0.00 0.00
11:34 pm 23:34 Cloudy 52 11 50 10 94 94 E 3 6 30.09 1019 9 14 0.00 0.00
11:53 pm 23:53 Cloudy 51 10.6 50 10 96 96 E 5 7 30.11 1020 9 14 0.00 0.00

Powered by AerisWeather